| time (UTC) | temp F | wind direction | speed knots | gust knots | rain 1hr in | rain 24hr in | rain mn in | humidity % | barometer mb |
| 20260905220004 | 83 | 65 | 0.0 | 2.6 | 0.00 | 0.22 | 0.00 | 78 | 1008.1 |
| 20260905214504 | 84 | 63 | 0.0 | 2.6 | 0.00 | 0.22 | 0.00 | 78 | 1008.3 |
| 20260905213026 | 84 | 62 | 0.0 | 2.6 | 0.00 | 0.22 | 0.00 | 77 | 1008.3 |
| 20260905211504 | 85 | 49 | 0.0 | 1.7 | 0.00 | 0.22 | 0.00 | 78 | 1008.2 |
| 20260905210005 | 86 | 52 | 0.0 | 0.9 | 0.00 | 0.22 | 0.00 | 78 | 1007.8 |
| 20260905204505 | 88 | 318 | 0.0 | 2.6 | 0.00 | 0.22 | 0.00 | 75 | 1007.9 |
| 20260905203004 | 89 | 326 | 0.0 | 0.9 | 0.00 | 0.22 | 0.00 | 73 | 1007.9 |
| 20260905201505 | 90 | 84 | 0.0 | 0.9 | 0.00 | 0.23 | 0.00 | 70 | 1008.1 |
| 20260905200004 | 90 | 84 | 0.0 | 0.9 | 0.00 | 0.23 | 0.00 | 66 | 1008.1 |
| 20260905194504 | 89 | 71 | 0.0 | 1.7 | 0.00 | 0.23 | 0.00 | 68 | 1008.4 |
| 20260905193026 | 89 | 65 | 0.0 | 1.7 | 0.00 | 0.23 | 0.00 | 69 | 1008.7 |
| 20260905191504 | 88 | 62 | 0.0 | 0.9 | 0.00 | 0.23 | 0.00 | 72 | 1008.8 |
| 20260905190004 | 89 | 67 | 0.0 | 3.5 | 0.00 | 0.23 | 0.00 | 70 | 1009.0 |
| 20260905184504 | 90 | 84 | 0.0 | 0.9 | 0.00 | 0.23 | 0.00 | 71 | 1009.1 |
| 20260905183005 | 90 | 73 | 0.0 | 2.6 | 0.00 | 0.23 | 0.00 | 67 | 1009.3 |
| 20260905181504 | 91 | 107 | 0.0 | 0.9 | 0.00 | 0.23 | 0.00 | 70 | 1009.4 |
| 20260905180005 | 90 | 99 | 0.0 | 0.9 | 0.00 | 0.23 | 0.00 | 69 | 1009.3 |
| 20260905174504 | 88 | 66 | 0.9 | 2.6 | 0.00 | 0.23 | 0.00 | 73 | 1009.7 |
| 20260905173025 | 89 | 66 | 0.0 | 1.7 | 0.00 | 0.23 | 0.00 | 71 | 1009.7 |
| 20260905171525 | 89 | 74 | 0.0 | 1.7 | 0.00 | 0.23 | 0.00 | 70 | 1009.9 |
| 20260905170005 | 88 | 80 | 0.0 | 0.9 | 0.00 | 0.23 | 0.00 | 73 | 1010.0 |
| 20260905164504 | 88 | 136 | 0.0 | 0.9 | 0.00 | 0.23 | 0.00 | 75 | 1010.1 |
| 20260905163004 | 87 | 77 | 0.0 | 1.7 | 0.00 | 0.23 | 0.00 | 75 | 1010.2 |
| 20260905161504 | 87 | 71 | 0.0 | 1.7 | 0.00 | 0.23 | 0.00 | 74 | 1010.5 |
| 20260905160004 | 87 | 75 | 0.0 | 1.7 | 0.00 | 0.23 | 0.00 | 73 | 1010.7 |
| 20260905154504 | 86 | 88 | 0.0 | 0.9 | 0.00 | 0.23 | 0.00 | 75 | 1010.8 |
| 20260905153025 | 85 | 74 | 0.0 | 0.9 | 0.00 | 0.23 | 0.00 | 78 | 1010.8 |
| 20260905151504 | 84 | 152 | 0.0 | 2.6 | 0.00 | 0.23 | 0.00 | 81 | 1010.9 |
| 20260905150004 | 83 | 96 | 0.0 | 0.9 | 0.00 | 0.23 | 0.00 | 82 | 1010.7 |
| 20260905144504 | 82 | 118 | 0.0 | 1.7 | 0.00 | 0.23 | 0.00 | 84 | 1010.6 |
| 20260905143004 | 81 | 147 | 0.0 | 4.3 | 0.00 | 0.23 | 0.00 | 87 | 1010.5 |
| 20260905141504 | 80 | 148 | 0.0 | 1.7 | 0.00 | 0.23 | 0.00 | 87 | 1010.5 |
| 20260905140025 | 79 | 182 | 0.0 | 2.6 | 0.00 | 0.23 | 0.00 | 89 | 1010.6 |
| 20260905134503 | 78 | 185 | 0.0 | 2.6 | 0.00 | 0.23 | 0.00 | 91 | 1010.4 |
| 20260905133004 | 77 | 137 | 0.0 | 0.9 | 0.00 | 0.23 | 0.00 | 92 | 1010.6 |
| 20260905131504 | 76 | 248 | 0.0 | 1.7 | 0.00 | 0.23 | 0.00 | 94 | 1010.7 |
| 20260905130004 | 75 | 147 | 0.0 | 0.9 | 0.00 | 0.23 | 0.00 | 96 | 1010.8 |
| 20260905124525 | 75 | 0 | 0.0 | 0.0 | 0.00 | 0.23 | 0.00 | 97 | 1010.8 |
| 20260905123005 | 74 | 145 | 0.0 | 0.9 | 0.00 | 0.23 | 0.00 | 98 | 1010.8 |
| 20260905121503 | 73 | 0 | 0.0 | 0.0 | 0.00 | 0.23 | 0.00 | 98 | 1010.9 |
| 20260905120004 | 73 | 0 | 0.0 | 0.0 | 0.00 | 0.23 | 0.00 | 98 | 1010.6 |
| 20260905114504 | 72 | 0 | 0.0 | 0.0 | 0.00 | 0.23 | 0.00 | 98 | 1010.5 |
| 20260905113004 | 72 | 0 | 0.0 | 0.0 | 0.00 | 0.23 | 0.00 | 98 | 1010.4 |
| 20260905111503 | 71 | 0 | 0.0 | 0.0 | 0.00 | 0.23 | 0.00 | 98 | 1010.2 |
| 20260905110025 | 71 | 0 | 0.0 | 0.0 | 0.00 | 0.23 | 0.00 | 98 | 1010.0 |
| 20260905104503 | 71 | 0 | 0.0 | 0.0 | 0.00 | 0.23 | 0.00 | 98 | 1009.8 |
| 20260905103025 | 71 | 0 | 0.0 | 0.0 | 0.00 | 0.23 | 0.00 | 98 | 1009.7 |
| 20260905101504 | 71 | 0 | 0.0 | 0.0 | 0.00 | 0.23 | 0.00 | 98 | 1009.6 |
| 20260905100025 | 71 | 0 | 0.0 | 0.0 | 0.00 | 0.23 | 0.00 | 98 | 1009.5 |
| 20260905094504 | 71 | 114 | 0.0 | 0.9 | 0.00 | 0.23 | 0.00 | 98 | 1009.5 |
| 20260905093003 | 71 | 0 | 0.0 | 0.0 | 0.00 | 0.23 | 0.00 | 98 | 1009.6 |
| 20260905091504 | 71 | 0 | 0.0 | 0.0 | 0.00 | 0.23 | 0.00 | 97 | 1009.7 |
| 20260905090003 | 71 | 129 | 0.0 | 0.9 | 0.00 | 0.23 | 0.00 | 97 | 1009.7 |
| 20260905084504 | 71 | 0 | 0.0 | 0.0 | 0.00 | 0.23 | 0.00 | 97 | 1009.4 |
| 20260905083025 | 71 | 172 | 0.0 | 0.9 | 0.00 | 0.23 | 0.00 | 97 | 1009.2 |
| 20260905081503 | 71 | 0 | 0.0 | 0.0 | 0.00 | 0.23 | 0.00 | 97 | 1009.2 |
| 20260905080004 | 71 | 124 | 0.0 | 0.9 | 0.00 | 0.23 | 0.00 | 97 | 1009.4 |
| 20260905074526 | 71 | 0 | 0.0 | 0.0 | 0.00 | 0.23 | 0.00 | 97 | 1009.5 |
| 20260905073005 | 71 | 107 | 0.0 | 0.9 | 0.00 | 0.23 | 0.00 | 97 | 1009.5 |
| 20260905071505 | 71 | 0 | 0.0 | 0.0 | 0.00 | 0.23 | 0.00 | 97 | 1009.3 |
| 20260905070005 | 71 | 0 | 0.0 | 0.0 | 0.00 | 0.23 | 0.00 | 97 | 1009.3 |
| 20260905064505 | 71 | 120 | 0.0 | 0.9 | 0.00 | 0.23 | 0.00 | 97 | 1009.5 |
| 20260905063005 | 71 | 0 | 0.0 | 0.0 | 0.00 | 0.23 | 0.00 | 97 | 1009.5 |
| 20260905061505 | 71 | 110 | 0.0 | 0.9 | 0.00 | 0.23 | 0.00 | 97 | 1009.7 |
| 20260905060005 | 72 | 124 | 0.0 | 0.9 | 0.00 | 0.23 | 0.00 | 97 | 1009.8 |
| 20260905054505 | 72 | 125 | 0.0 | 0.9 | 0.00 | 0.23 | 0.00 | 97 | 1010.1 |
| 20260905053005 | 72 | 116 | 0.0 | 1.7 | 0.00 | 0.23 | 0.00 | 97 | 1010.2 |
| 20260905051505 | 72 | 79 | 0.0 | 0.9 | 0.00 | 0.23 | 0.00 | 97 | 1010.6 |
| 20260905050005 | 73 | 171 | 0.0 | 0.9 | 0.00 | 0.23 | 0.00 | 97 | 1010.8 |
| 20260905044505 | 73 | 0 | 0.0 | 0.0 | 0.00 | 0.23 | 0.00 | 97 | 1010.7 |
| 20260905043005 | 73 | 115 | 0.0 | 0.9 | 0.00 | 0.23 | 0.00 | 97 | 1010.8 |
| 20260905041505 | 74 | 0 | 0.0 | 0.0 | 0.00 | 0.23 | 0.00 | 97 | 1011.0 |
| 20260905040006 | 74 | 123 | 0.0 | 1.7 | 0.00 | 0.23 | 0.00 | 97 | 1011.2 |
| 20260905034525 | 74 | 148 | 0.0 | 4.3 | 0.00 | 0.23 | 0.23 | 97 | 1011.1 |
| 20260905033005 | 74 | 127 | 0.0 | 0.9 | 0.00 | 0.23 | 0.23 | 97 | 1011.0 |
| 20260905031526 | 74 | 0 | 0.0 | 0.0 | 0.00 | 0.23 | 0.23 | 97 | 1010.4 |
| 20260905030005 | 74 | 0 | 0.0 | 0.0 | 0.01 | 0.23 | 0.23 | 97 | 1009.9 |
| 20260905024505 | 74 | 0 | 0.0 | 0.0 | 0.03 | 0.23 | 0.23 | 97 | 1010.5 |
| 20260905023004 | 73 | 0 | 0.0 | 0.0 | 0.07 | 0.23 | 0.23 | 96 | 1011.4 |
| 20260905021505 | 74 | 289 | 0.0 | 2.6 | 0.09 | 0.23 | 0.23 | 96 | 1011.9 |
| 20260905020004 | 74 | 298 | 0.0 | 3.5 | 0.09 | 0.22 | 0.22 | 96 | 1012.2 |
| 20260905014505 | 74 | 142 | 0.0 | 2.6 | 0.08 | 0.20 | 0.20 | 95 | 1014.1 |
| 20260905013026 | 74 | 115 | 0.0 | 6.1 | 0.06 | 0.16 | 0.17 | 95 | 1014.4 |
| 20260905011526 | 74 | 118 | 0.0 | 2.6 | 0.05 | 0.14 | 0.14 | 94 | 1014.0 |
| 20260905010005 | 74 | 108 | 0.9 | 4.3 | 0.06 | 0.13 | 0.13 | 94 | 1013.8 |
| 20260905004504 | 74 | 110 | 0.0 | 5.2 | 0.10 | 0.12 | 0.12 | 94 | 1014.0 |
| 20260905003005 | 75 | 144 | 0.0 | 0.9 | 0.09 | 0.10 | 0.10 | 92 | 1013.1 |
| 20260905001525 | 76 | 129 | 0.0 | 1.7 | 0.08 | 0.09 | 0.09 | 91 | 1012.4 |
| 20260905000005 | 78 | 123 | 0.9 | 6.1 | 0.05 | 0.06 | 0.06 | 88 | 1013.0 |
| 20260904234505 | 80 | 127 | 0.0 | 5.2 | 0.01 | 0.02 | 0.02 | 86 | 1013.2 |
| 20260904233025 | 81 | 260 | 0.0 | 0.9 | 0.00 | 0.01 | 0.01 | 87 | 1012.6 |
| 20260904231504 | 81 | 287 | 0.0 | 0.9 | 0.00 | 0.01 | 0.01 | 87 | 1011.7 |
| 20260904230005 | 80 | 272 | 0.0 | 2.6 | 0.00 | 0.01 | 0.01 | 86 | 1012.0 |
| 20260904224505 | 80 | 272 | 0.0 | 1.7 | 0.00 | 0.01 | 0.01 | 84 | 1012.2 |
| 20260904223005 | 80 | 0 | 0.0 | 0.0 | 0.00 | 0.01 | 0.01 | 83 | 1011.5 |
| 20260904221505 | 80 | 134 | 0.0 | 0.9 | 0.00 | 0.01 | 0.01 | 84 | 1011.5 |